ACA1121 CYXU-CYQB

Flight info

Callsign ACA1121
Flight time N/A
Altitude 39000
Route NUBER DCT SIKBO DCT AGLUK PESAC4
Aircraft A20N/M-SDE2E3FGHIRWXY/LB1

Departure

Time 2026-04-20 17:29
Airport London International Airport (CYXU)

Arrival

Time N/A
Airport Quebec Jean Lesage International Airport (CYQB)
Time Latitude Longitude Altitude Speed Heading
2026-04-20 17:20 43.02917 -81.14823 901 ft 0 kts 286°
2026-04-20 17:25 43.02916 -81.14817 901 ft 2 kts 279°
2026-04-20 17:25 43.02915 -81.14782 901 ft 4 kts 247°
2026-04-20 17:25 43.02933 -81.14763 901 ft 0 kts 156°
2026-04-20 17:26 43.02932 -81.14762 901 ft 3 kts 156°
2026-04-20 17:26 43.02877 -81.14702 902 ft 13 kts 130°
2026-04-20 17:26 43.02857 -81.14671 904 ft 3 kts 135°
2026-04-20 17:26 43.02736 -81.14552 904 ft 26 kts 148°
2026-04-20 17:27 43.02690 -81.14474 909 ft 0 kts 126°
2026-04-20 17:27 43.02660 -81.14435 904 ft 26 kts 136°
2026-04-20 17:27 43.02513 -81.14257 902 ft 28 kts 139°
2026-04-20 17:27 43.02390 -81.14117 898 ft 9 kts 142°
2026-04-20 17:28 43.02327 -81.14023 899 ft 18 kts 112°
2026-04-20 17:28 43.02382 -81.13877 897 ft 22 kts 29°
2026-04-20 17:28 43.02510 -81.13945 898 ft 27 kts 319°
2026-04-20 17:28 43.02861 -81.14367 906 ft 105 kts 319°
2026-04-20 17:29 43.03569 -81.15225 930 ft 162 kts 318°
2026-04-20 17:29 43.04454 -81.16285 1434 ft 186 kts 317°
2026-04-20 17:29 43.05515 -81.17608 1893 ft 226 kts 317°
2026-04-20 17:29 43.06755 -81.19121 2589 ft 250 kts 319°
2026-04-20 17:30 43.08242 -81.20568 3197 ft 279 kts 335°
2026-04-20 17:30 43.10259 -81.21200 3383 ft 321 kts 359°
2026-04-20 17:30 43.12566 -81.20628 3606 ft 353 kts 22°
2026-04-20 17:30 43.14598 -81.18746 4748 ft 351 kts 46°
2026-04-20 17:31 43.15910 -81.16029 6315 ft 338 kts 68°
2026-04-20 17:31 43.16400 -81.13004 7857 ft 324 kts 84°
2026-04-20 17:31 43.16633 -81.10003 9392 ft 310 kts 81°
2026-04-20 17:31 43.17086 -81.07137 10562 ft 312 kts 73°
2026-04-20 17:32 43.17865 -81.04247 11000 ft 336 kts 65°
2026-04-20 17:32 43.18941 -81.01335 11702 ft 346 kts 61°
2026-04-20 17:32 43.20139 -80.98462 12653 ft 350 kts 59°
2026-04-20 17:32 43.21389 -80.95567 13581 ft 355 kts 59°
2026-04-20 17:33 43.22657 -80.92636 14464 ft 360 kts 59°
2026-04-20 17:33 43.23934 -80.89663 15348 ft 365 kts 59°
2026-04-20 17:33 43.25224 -80.86641 16200 ft 369 kts 59°
2026-04-20 17:33 43.26526 -80.83575 17028 ft 374 kts 59°
2026-04-20 17:34 43.27842 -80.80469 17833 ft 379 kts 60°
2026-04-20 17:34 43.29170 -80.77328 18615 ft 383 kts 60°
2026-04-20 17:34 43.30515 -80.74144 19371 ft 388 kts 60°
2026-04-20 17:34 43.31855 -80.70968 20094 ft 392 kts 60°
2026-04-20 17:35 43.33229 -80.67707 20805 ft 396 kts 60°
2026-04-20 17:35 43.34616 -80.64411 21483 ft 400 kts 60°
2026-04-20 17:35 43.36016 -80.61082 22137 ft 405 kts 60°
2026-04-20 17:35 43.37431 -80.57714 22743 ft 409 kts 60°
2026-04-20 17:36 43.38856 -80.54317 23353 ft 412 kts 60°
2026-04-20 17:36 43.40294 -80.50885 23919 ft 416 kts 60°
2026-04-20 17:36 43.41744 -80.47421 24479 ft 420 kts 60°
2026-04-20 17:36 43.43207 -80.43921 25013 ft 423 kts 60°
2026-04-20 17:37 43.44660 -80.40388 25473 ft 426 kts 63°
2026-04-20 17:37 43.50383 -80.14444 27094 ft 440 kts 75°
2026-04-20 17:37 43.54449 -79.92555 28389 ft 446 kts 74°
2026-04-20 17:37 43.57707 -79.75891 29660 ft 455 kts 75°
2026-04-20 17:38 43.60912 -79.58866 30885 ft 463 kts 75°
2026-04-20 17:38 43.65789 -79.34138 32610 ft 460 kts 71°
2026-04-20 17:38 43.74406 -79.15425 33274 ft 458 kts 55°
2026-04-20 17:38 43.81411 -79.00765 34505 ft 455 kts 57°
2026-04-20 17:39 43.88272 -78.86086 35566 ft 453 kts 57°
2026-04-20 17:39 43.95095 -78.71420 36441 ft 452 kts 57°
2026-04-20 17:39 43.99602 -78.61690 36933 ft 452 kts 57°